FW0904 Weather Reports


time (UTC)temp
C
wind
direction
speed
KPH
gust
KPH
rain 1hr
cm
rain 24hr
cm
rain mn
cm
humidity
%
barometer
mb
20260507060010 8 42 0.0 0.0 0.00 0.00 0.00 88 1017.4
20260507054600 8 42 0.0 0.0 0.00 0.00 0.00 89 1017.2
20260507053059 8 42 0.0 0.0 0.00 0.00 0.00 89 1017.2
20260507051601 8 42 0.0 0.0 0.00 0.00 0.00 88 1017.1
20260507050059 8 42 0.0 0.0 0.00 0.00 0.00 89 1017.1
20260507044556 8 42 0.0 0.0 0.00 0.00 0.00 89 1016.9
20260507043055 8 42 0.0 0.0 0.00 0.00 0.00 89 1016.9
20260507041555 8 42 0.0 0.0 0.00 0.00 0.00 89 1016.9
20260507040053 8 42 0.0 0.0 0.00 0.00 0.00 89 1016.8
20260507034553 8 42 0.0 0.0 0.00 0.00 0.00 89 1016.8
20260507033051 8 42 0.0 0.0 0.00 0.00 0.00 89 1016.7
20260507031550 8 42 0.0 0.0 0.00 0.00 0.00 89 1016.7
20260507030049 7 42 0.0 0.0 0.00 0.00 0.00 88 1016.7
20260507024601 8 42 0.0 0.0 0.00 0.00 0.00 88 1016.6
20260507023046 8 42 0.0 0.0 0.00 0.00 0.00 88 1016.5
20260507021545 8 42 0.0 0.0 0.00 0.00 0.00 88 1016.4
20260507014553 8 42 0.0 0.0 0.00 0.00 0.00 87 1016.3
20260507013047 8 42 0.0 0.0 0.00 0.00 0.00 87 1016.4
20260507011541 8 42 0.0 0.0 0.00 0.00 0.00 87 1016.4
20260507010040 8 42 0.0 0.0 0.00 0.00 0.00 87 1016.4
20260507004543 8 42 0.0 0.0 0.00 0.00 0.00 87 1016.4
20260507003038 8 42 0.0 0.0 0.00 0.00 0.00 87 1016.3
20260507001538 8 42 0.0 0.0 0.00 0.00 0.00 87 1016.4
20260507000037 8 42 0.0 0.0 0.00 0.00 0.00 86 1016.4
20260506234539 8 42 0.0 0.0 0.00 0.00 0.00 86 1016.4
20260506233034 8 42 0.0 0.0 0.00 0.00 0.00 85 1016.4
20260506231545 8 42 0.0 0.0 0.00 0.00 0.00 85 1016.4
20260506230039 8 42 0.0 0.0 0.00 0.00 0.00 85 1016.3
20260506224531 8 42 0.0 0.0 0.00 0.00 0.00 85 1016.3
20260506223044 9 42 0.0 0.0 0.00 0.00 0.00 85 1016.2
20260506221529 9 42 0.0 0.0 0.00 0.00 0.00 85 1016.2
20260506220030 9 42 0.0 3.2 0.00 0.00 0.00 85 1016.1
20260506214527 8 42 0.0 0.0 0.00 0.00 0.00 86 1016.1
20260506213029 9 42 0.0 0.0 0.00 0.00 0.00 85 1016.0
20260506211532 9 42 0.0 0.0 0.00 0.00 0.00 85 1015.9
20260506210030 9 42 0.0 0.0 0.00 0.00 0.00 84 1015.8
20260506204523 9 42 0.0 0.0 0.00 0.00 0.00 84 1015.8
20260506203027 9 42 0.0 0.0 0.00 0.00 0.00 83 1015.7
20260506201531 9 42 0.0 0.0 0.00 0.00 0.00 83 1015.6
20260506200019 9 42 0.0 0.0 0.00 0.00 0.00 82 1015.5
20260506194525 10 42 0.0 0.0 0.00 0.00 0.00 82 1015.3
20260506193016 10 42 0.0 0.0 0.00 0.00 0.00 82 1015.2
20260506191516 10 42 0.0 0.0 0.00 0.00 0.00 81 1015.0
20260506190014 10 42 0.0 1.6 0.00 0.00 0.00 80 1015.0
20260506184513 10 42 0.0 1.6 0.00 0.00 0.00 79 1014.8
20260506183019 10 42 0.0 3.2 0.00 0.00 0.00 78 1014.7
20260506181510 11 42 0.0 1.6 0.00 0.00 0.00 77 1014.6
20260506180011 11 42 0.0 3.2 0.00 0.00 0.00 76 1014.5
20260506174510 11 42 0.0 3.2 0.00 0.00 0.00 75 1014.3
20260506173005 11 42 0.0 3.2 0.00 0.00 0.00 74 1014.2
20260506171504 11 42 0.0 4.8 0.00 0.00 0.00 74 1014.1
20260506170003 11 42 1.6 4.8 0.00 0.00 0.00 74 1014.0
20260506164506 12 42 1.6 3.2 0.00 0.00 0.00 73 1014.0
20260506163003 12 42 1.6 3.2 0.00 0.00 0.00 75 1014.1
20260506161502 12 42 0.0 4.8 0.00 0.00 0.00 75 1013.9
20260506160002 12 42 1.6 4.8 0.00 0.00 0.00 73 1014.1
20260506154701 13 46 1.6 3.2 0.00 0.00 0.00 71 1013.9
20260506153103 13 57 0.0 3.2 0.00 0.00 0.00 69 1013.9
20260506151558 13 56 1.6 4.8 0.00 0.00 0.00 68 1013.9
20260506150100 12 81 0.0 3.2 0.00 0.00 0.00 71 1013.7
20260506144607 12 78 0.0 4.8 0.00 0.00 0.00 69 1013.8
20260506143103 12 81 0.0 4.8 0.00 0.00 0.00 69 1013.8
20260506141556 12 110 0.0 3.2 0.00 0.00 0.00 67 1013.8
20260506140056 12 49 0.0 3.2 0.00 0.00 0.00 67 1013.8
20260506134556 13 71 0.0 3.2 0.00 0.00 0.00 67 1013.9
20260506133053 13 77 1.6 6.4 0.00 0.00 0.00 62 1013.9
20260506131555 14 77 0.0 3.2 0.00 0.00 0.00 61 1013.8
20260506130059 15 53 0.0 6.4 0.00 0.00 0.00 59 1013.9
20260506124552 13 214 1.6 6.4 0.00 0.00 0.00 65 1013.9
20260506123051 12 42 0.0 3.2 0.00 0.00 0.00 66 1013.9
20260506121648 12 42 0.0 3.2 0.00 0.00 0.00 62 1013.8
20260506120046 13 46 1.6 4.8 0.00 0.00 0.00 61 1013.8
20260506114544 15 59 0.0 6.4 0.00 0.00 0.00 58 1013.7
20260506113040 14 82 0.0 4.8 0.00 0.00 0.00 64 1013.6
20260506111538 12 58 0.0 3.2 0.00 0.00 0.00 65 1013.8
20260506110035 13 58 0.0 3.2 0.00 0.00 0.00 67 1013.8
20260506104535 13 58 0.0 4.8 0.00 0.00 0.00 66 1013.7
20260506103042 12 65 0.0 4.8 0.00 0.00 0.00 66 1013.8
20260506101531 13 78 0.0 4.8 0.00 0.00 0.00 65 1013.7
20260506100029 13 86 1.6 4.8 0.00 0.00 0.00 62 1013.7
20260506094527 12 99 0.0 8.0 0.00 0.00 0.00 68 1013.8
20260506093024 13 50 1.6 8.0 0.00 0.00 0.00 67 1013.7
20260506091521 11 80 1.6 4.8 0.00 0.00 0.00 73 1013.7
20260506090026 12 71 0.0 4.8 0.00 0.00 0.00 72 1013.7
20260506084520 11 76 0.0 4.8 0.00 0.00 0.00 72 1013.6
20260506083015 11 46 0.0 4.8 0.00 0.00 0.00 74 1013.4
20260506081512 11 45 1.6 4.8 0.00 0.00 0.00 73 1013.4
20260506073004 9 130 0.0 14.5 0.00 0.00 0.00 78 1013.5
20260506071604 9 46 1.6 4.8 0.00 0.00 0.00 80 1013.4
20260506061603 8 13 0.0 14.5 0.00 0.00 0.00 84 1013.3